New Orleans NAS, LA

5:00 AM CDT on April 26, 2017 (GMT -0500)
New Orleans Naval Air Station

Weather History for KNBG - November, 2013

Change the Weather History Date:

Friday, November 29, 2013

  Actual Average Record
Temperature  
Mean Temperature 42 °F -  
Max Temperature 57 °F 65 °F 81 °F (2016)
Min Temperature 28 °F 49 °F 28 °F (2013)
Degree Days  
Heating Degree Days 22    
Moisture  
Dew Point 28 °F    
Average Humidity 70    
Maximum Humidity 92    
Minimum Humidity 23    
Precipitation  
Precipitation 0.00 in - - ()
Sea Level Pressure  
Sea Level Pressure 30.49 in    
Wind  
Wind Speed 2 mph (ENE)    
Max Wind Speed 12 mph    
Max Gust Speed -    
Visibility 8 miles    
Events      
Averages and records for this station are not official NWS values.
T = Trace of Precipitation, MM = Missing Value Source: NWS Daily Summary

Daily Weather History Graph

Daily Weather History Graph

Search for Another Location

Airport or City:

Trip Planner

Search our weather history database for the weather conditions in past years. The results will help you decide how hot, cold, wet, or windy it might be!

Date:

Astronomy

Nov. 29, 2013 Rise Set
Actual Time 6:36 AM CST 5:00 PM CST
Civil Twilight 6:10 AM CST 5:26 PM CST
Nautical Twilight 5:41 AM CST 5:55 PM CST
Astronomical Twilight 5:12 AM CST 6:24 PM CST
Moon 2:56 AM CST (11/29) 2:32 PM CST (11/29)
Length of Visible Light 11h 15m
Length of Day
10h 23m
Waning Crescent, 14% of the Moon is Illuminated
Nov 29
Waning Crescent
Dec 2
New
Dec 9
First Quarter
Dec 17
Full
Dec 25
Last Quarter

Hourly Weather History & Observations

Time (CST) Temp. Windchill Dew Point Humidity Pressure Visibility Wind Dir Wind Speed Gust Speed Precip Events Conditions
12:55 AM 30.0 °F - 27.0 °F 88% 30.49 in 6.0 mi Calm Calm - N/A   Clear
1:51 AM 30.2 °F - 26.6 °F 86% 30.49 in 1.5 mi Calm Calm - N/A   Clear
1:55 AM 28.9 °F - 26.1 °F 89% 30.49 in 1.0 mi Calm Calm - N/A   Clear
2:02 AM 30.2 °F - 26.6 °F 86% 30.49 in 3.0 mi Calm Calm - N/A   Clear
2:55 AM 28.9 °F - 26.1 °F 89% 30.48 in 2.0 mi Calm Calm - N/A   Mist
3:55 AM 30.0 °F - 26.1 °F 85% 30.48 in 6.0 mi Calm Calm - N/A   Clear
4:55 AM 28.9 °F - 26.1 °F 89% 30.50 in 6.0 mi Calm Calm - N/A   Clear
5:55 AM 28.0 °F - 25.0 °F 88% 30.51 in 5.0 mi Calm Calm - N/A   Clear
6:10 AM 28.4 °F 24.6 °F 24.8 °F 86% 30.52 in 10.0 mi NE 3.5 mph - N/A   Partly Cloudy
6:55 AM 30.0 °F 26.5 °F 27.0 °F 88% 30.53 in 10.0 mi NNE 3.5 mph - N/A   Partly Cloudy
7:55 AM 37.0 °F - 34.0 °F 89% 30.54 in 10.0 mi Calm Calm - N/A   Partly Cloudy
8:55 AM 46.9 °F - 33.1 °F 59% 30.55 in 10.0 mi NE 6.9 mph - N/A   Partly Cloudy
9:55 AM 51.1 °F - 27.0 °F 39% 30.55 in 10.0 mi NE 11.5 mph - N/A   Partly Cloudy
10:55 AM 53.1 °F - 25.0 °F 34% 30.52 in 10.0 mi ENE 11.5 mph - N/A   Clear
11:55 AM 54.0 °F - 24.1 °F 31% 30.50 in 10.0 mi ENE 10.4 mph - N/A   Clear
12:55 PM 55.9 °F - 25.0 °F 30% 30.47 in 10.0 mi NE 9.2 mph - N/A   Clear
1:55 PM 57.0 °F - 26.1 °F 30% 30.46 in 10.0 mi ENE 8.1 mph - N/A   Clear
2:55 PM 55.9 °F - 18.0 °F 23% 30.45 in 10.0 mi East 5.8 mph - N/A   Clear
3:55 PM 55.0 °F - 18.0 °F 23% 30.45 in 10.0 mi East 5.8 mph - N/A   Clear
4:55 PM 46.0 °F - 30.9 °F 56% 30.45 in 10.0 mi Calm Calm - N/A   Clear
5:55 PM 39.0 °F - 33.1 °F 79% 30.46 in 10.0 mi Calm Calm - N/A   Clear
6:55 PM 37.9 °F - 33.1 °F 83% 30.46 in 10.0 mi Calm Calm - N/A   Clear
7:55 PM 36.0 °F - 32.0 °F 86% 30.47 in 10.0 mi Calm Calm - N/A   Clear
8:55 PM 35.1 °F - 30.9 °F 85% 30.46 in 10.0 mi Calm Calm - N/A   Clear
9:55 PM 34.0 °F - 30.9 °F 89% 30.47 in 10.0 mi Calm Calm - N/A   Clear
10:55 PM 33.1 °F - 30.9 °F 92% 30.45 in 10.0 mi Calm Calm - N/A   Clear
11:55 PM 33.1 °F - 30.0 °F 89% 30.45 in 9.0 mi Calm Calm - N/A   Clear